WE3C Weather Reports


time (UTC)temp
C
wind
direction
speed
KPH
gust
KPH
rain 1hr
cm
rain 24hr
cm
rain mn
cm
humidity
%
barometer
mb
20260506144528 15 161 0.0 0.0 0.00 0.00 0.00 72 1012.9
20260506143024 15 360 0.0 0.0 0.00 0.00 0.00 73 1012.9
20260506141529 15 360 0.0 0.0 0.00 0.00 0.00 75 1012.8
20260506140022 15 360 0.0 0.0 0.00 0.00 0.00 76 1013.0
20260506134517 15 190 0.0 0.0 0.00 0.00 0.00 77 1013.0
20260506133011 15 182 0.0 0.0 0.00 0.00 0.00 78 1013.0
20260506131512 15 360 0.0 0.0 0.00 0.00 0.00 79 1013.2
20260506130009 15 183 0.0 0.0 0.00 0.00 0.00 79 1013.2
20260506124508 15 360 0.0 0.0 0.00 0.00 0.00 79 1013.3
20260506123007 16 360 0.0 0.0 0.00 0.00 0.00 79 1013.5
20260506121508 16 184 0.0 0.0 0.00 0.00 0.00 79 1013.1
20260506120004 16 188 0.0 0.0 0.00 0.00 0.00 78 1013.0
20260506114559 17 360 0.0 0.0 0.00 0.00 0.00 77 1012.9
20260506113059 17 186 0.0 0.0 0.00 0.00 0.00 76 1012.8
20260506111557 17 360 0.0 0.0 0.00 0.00 0.00 75 1012.8
20260506110112 17 360 0.0 0.0 0.00 0.00 0.00 75 1012.8
20260506104611 17 360 0.0 0.0 0.00 0.00 0.00 75 1012.5
20260506103053 17 360 0.0 0.0 0.00 0.00 0.00 74 1012.5
20260506101553 17 169 0.0 0.0 0.00 0.00 0.00 73 1012.4
20260506100101 17 171 0.0 0.0 0.00 0.00 0.00 73 1012.5
20260506094555 17 182 0.0 0.0 0.00 0.00 0.00 72 1012.6
20260506093047 17 140 0.0 0.0 0.00 0.00 0.00 71 1012.5
20260506091546 18 158 0.0 0.0 0.00 0.00 0.00 70 1012.5
20260506090044 18 185 0.0 0.0 0.00 0.00 0.00 69 1012.4
20260506084613 18 360 0.0 0.0 0.00 0.00 0.00 68 1012.6
20260506083043 18 360 0.0 0.0 0.00 0.00 0.00 67 1012.6
20260506081550 18 171 0.0 0.0 0.00 0.00 0.00 66 1012.6
20260506073034 18 191 0.0 0.0 0.00 0.00 0.00 63 1012.7
20260506071534 18 360 0.0 0.0 0.00 0.00 0.00 62 1012.8
20260506070130 19 163 0.0 0.0 0.00 0.00 0.00 61 1013.0
20260506061521 19 198 0.0 0.0 0.00 0.00 0.00 58 1013.6
20260506044519 20 360 0.0 0.0 0.00 0.00 0.00 54 1014.2
20260506043014 20 191 0.0 0.0 0.00 0.00 0.00 53 1014.2
20260506041512 20 360 0.0 0.0 0.00 0.00 0.00 52 1014.2
20260506040011 20 202 0.0 0.0 0.00 0.00 0.00 52 1014.3
20260506034511 20 193 0.0 0.0 0.00 0.00 0.00 51 1014.0
20260506033012 20 170 0.0 0.0 0.00 0.00 0.00 52 1014.1
20260506031509 20 186 0.0 0.0 0.00 0.00 0.00 52 1014.1
20260506030008 20 360 0.0 0.0 0.00 0.00 0.00 52 1014.1
20260506024510 20 360 0.0 0.0 0.00 0.00 0.00 51 1014.0
20260506023008 20 156 0.0 0.0 0.00 0.00 0.00 51 1014.2
20260506021506 20 155 0.0 0.0 0.00 0.00 0.00 50 1014.4
20260506020005 21 360 0.0 0.0 0.00 0.00 0.00 49 1014.2
20260506014505 21 185 0.0 0.0 0.00 0.00 0.00 48 1014.1
20260506013005 21 167 0.0 0.0 0.00 0.00 0.00 47 1013.9
20260506011506 22 172 0.0 0.0 0.00 0.00 0.00 44 1013.7
20260506010004 22 167 0.0 0.0 0.00 0.00 0.00 42 1013.5
20260506004604 22 191 0.0 0.0 0.00 0.00 0.00 40 1013.3
20260506003024 22 198 0.0 0.0 0.00 0.00 0.00 41 1013.3
20260506001524 22 360 0.0 0.0 0.00 0.00 0.00 41 1013.1
20260506000024 23 172 0.0 0.0 0.00 0.00 0.00 42 1012.9
20260505234524 23 184 0.0 0.0 0.00 0.00 0.00 42 1012.9
20260505233022 23 167 0.0 0.0 0.00 0.00 0.00 41 1012.8
20260505231535 23 186 0.0 0.0 0.00 0.00 0.00 39 1012.8
20260505230025 24 162 0.0 0.0 0.00 0.00 0.00 38 1012.7
20260505224520 24 184 0.0 0.0 0.00 0.00 0.00 37 1012.9
20260505223019 24 173 0.0 0.0 0.00 0.00 0.00 37 1012.4
20260505221519 25 191 0.0 0.0 0.00 0.00 0.00 36 1012.6
20260505220023 25 156 0.0 0.0 0.00 0.00 0.00 36 1012.3
20260505214518 25 160 0.0 0.0 0.00 0.00 0.00 37 1012.4
20260505213027 25 192 0.0 0.0 0.00 0.00 0.00 36 1012.5
20260505211517 26 179 0.0 0.0 0.00 0.00 0.00 36 1012.4
20260505210017 26 200 0.0 0.0 0.00 0.00 0.00 37 1012.3
20260505204515 26 190 0.0 0.0 0.00 0.00 0.00 36 1012.2
20260505203012 26 153 0.0 0.0 0.00 0.00 0.00 35 1012.2
20260505201512 26 199 0.0 0.0 0.00 0.00 0.00 36 1012.7
20260505200010 26 360 0.0 0.0 0.00 0.00 0.00 37 1012.6
20260505194504 26 200 0.0 0.0 0.00 0.00 0.00 36 1012.7
20260505193003 26 222 0.0 0.0 0.00 0.00 0.00 36 1012.8
20260505191501 26 360 0.0 0.0 0.00 0.00 0.00 38 1012.8
20260505184559 26 205 0.0 0.0 0.00 0.00 0.00 41 1013.1
20260505183101 26 360 0.0 0.0 0.00 0.00 0.00 40 1013.2
20260505181555 26 193 0.0 0.0 0.00 0.00 0.00 35 1013.4
20260505180100 26 216 0.0 0.0 0.00 0.00 0.00 34 1013.6
20260505174554 26 223 0.0 0.0 0.00 0.00 0.00 36 1013.7
20260505173056 26 184 0.0 0.0 0.00 0.00 0.00 35 1014.0
20260505171550 26 209 0.0 0.0 0.00 0.00 0.00 35 1014.1
20260505170103 26 236 0.0 0.0 0.00 0.00 0.00 39 1014.3
20260505164544 26 198 0.0 0.0 0.00 0.00 0.00 39 1014.6
20260505163043 25 208 0.0 0.0 0.00 0.00 0.00 39 1014.7
20260505161537 25 188 0.0 0.0 0.00 0.00 0.00 41 1014.7
20260505153022 23 360 0.0 0.0 0.00 0.00 0.00 46 1014.9
20260505151520 23 221 0.0 0.0 0.00 0.00 0.00 47 1015.0